Location: Krasnoyarskiy Pitomnik
(51.1333°N, 71.6167°E)
Time: 09:55:55
(UTC+00:00)

Cosmos 1934 Rocket - Pass Details

Date: 22 October 2021
Orbit: 938 x 998 km, 83.0° (Epoch: 06 December)

Event Time Altitude Azimuth Distance (km) Brightness Sun altitude
Rises 13:11:25 0° 172° (S) 3,616 7.0 -10.8°
Reaches altitude 10° 13:13:56 10° 169° (SSE) 2,668 6.2 -11.2°
Maximum altitude 13:19:51 56° 93° (E) 1,115 4.0 -12.2°
Drops below altitude 10° 13:25:46 10° 17° (NNE) 2,666 6.1 -13.1°
Sets 13:28:17 0° 13° (NNE) 3,614 6.8 -13.5°
